This is the latest recevied weather packets stored in our database for station/object KC9DNQ-3. If no packets are shown the sender has not sent any weather packets the latest 10 day(s).
| Time | Temp. | Humidity | Pressure | Rain* | Wind** | Luminosity | Snow |
|---|---|---|---|---|---|---|---|
| 1778200510 | 15.56° C | 46% | 1008.8 hPa | 0 mm | - | 21 W/m² | - |
| 1778200211 | 16.11° C | 45% | 1008.9 hPa | 0 mm | - | 26 W/m² | - |
| 1778199909 | 16.11° C | 43% | 1008.8 hPa | 0 mm | - | 30 W/m² | - |
| 1778199611 | 16.67° C | 43% | 1008.8 hPa | 0 mm | - | 35 W/m² | - |
| 1778199309 | 16.67° C | 42% | 1008.8 hPa | 0 mm | - | 58 W/m² | - |
| 1778199010 | 16.67° C | 41% | 1008.8 hPa | 0 mm | - | 58 W/m² | - |
| 1778198710 | 16.67° C | 40% | 1008.8 hPa | 0 mm | - | 72 W/m² | - |
| 1778198410 | 16.67° C | 40% | 1008.8 hPa | 0 mm | - | 120 W/m² | - |
| 1778198110 | 17.22° C | 41% | 1008.8 hPa | 0 mm | - | 120 W/m² | - |
| 1778197811 | 17.22° C | 40% | 1008.8 hPa | 0 mm | - | 169 W/m² | - |
| 1778197509 | 17.22° C | 41% | 1008.8 hPa | 0 mm | - | 188 W/m² | - |
| 1778197210 | 17.22° C | 39% | 1008.8 hPa | 0 mm | - | 220 W/m² | - |
| 1778196910 | 17.22° C | 42% | 1008.8 hPa | 0 mm | - | 241 W/m² | - |
| 1778196610 | 17.22° C | 43% | 1008.8 hPa | 0 mm | - | 255 W/m² | - |
| 1778196311 | 17.22° C | 43% | 1008.8 hPa | 0 mm | - | 130 W/m² | - |
| 1778196010 | 17.78° C | 42% | 1008.8 hPa | 0 mm | - | 306 W/m² | - |
| 1778195710 | 17.22° C | 44% | 1008.8 hPa | 0 mm | - | 322 W/m² | - |
| 1778195410 | 17.22° C | 42% | 1008.8 hPa | 0 mm | - | 241 W/m² | - |
| 1778195111 | 17.22° C | 42% | 1008.9 hPa | 0 mm | - | 345 W/m² | - |
| 1778194810 | 17.22° C | 43% | 1008.9 hPa | 0 mm | - | 388 W/m² | - |
| 1778194510 | 17.78° C | 42% | 1008.9 hPa | 0 mm | - | 371 W/m² | - |
| 1778194209 | 17.78° C | 42% | 1008.9 hPa | 0 mm | - | 411 W/m² | - |
| 1778193910 | 17.78° C | 44% | 1008.9 hPa | 0 mm | - | 425 W/m² | - |
| 1778193610 | 17.78° C | 45% | 1008.9 hPa | 0 mm | - | 452 W/m² | - |
| 1778193310 | 17.78° C | 43% | 1009.1 hPa | 0 mm | - | 313 W/m² | - |
* Rain latest hour (hover to see other rain measurements)
** Current wind speed in m/s (hover to see current wind gust speed)